Вернуться в каталог

FENGYUN 1C DEB

АктивенPO
NORAD 29895·DEBRIS·🇨🇳 China

Запущен May 10, 1999 с Taiyuan Satellite Launch Center

Loading…

Ближайшие Пролёты (ближайшие 24 часа)

TLE

СвежийSource: Space-Track

Эпоха: Sep 14, 2026, 09:00 UTC

1 29895U 99025GR  26257.37503310  .00002607  00000-0  98072-3 0  9996
2 29895  99.9080  38.5472 0293590 310.5849  72.3805 14.11457982994095

Отслеживайте FENGYUN 1C DEB в реальном времени с AllMySat

Download on the App Store